Location: *
(47.6569°N, 7.4256°E)
Time: 08:55:59
(UTC+00:00)

Aureole 1 Rocket - Pass Details

Date: 14 December 2019
Orbit: 378 x 1382 km, 73.9° (Epoch: 17 January)

Event Time Altitude Azimuth Distance (km) Brightness Sun altitude
Rises 16:53:54 0° 204° (SSW) 2,240 6.7 -12.0°
Reaches altitude 10° 16:55:48 10° 206° (SSW) 1,412 5.6 -12.3°
Maximum altitude 16:58:47 78° 292° (WNW) 430 2.3 -12.8°
Enters shadow 17:01:59 12° 20° (NNE) 1,513 4.7 -13.3°
